Location: Unspecified
(0.0000°N, 0.0000°E)
Time: 18:41:13
(UTC+00:00)

N. Korean satellite - Pass Details

Date: 12 February 2019
Orbit: 457 x 508 km, 97.2° (Epoch: 17 April)

Event Time Altitude Azimuth Distance (km) Brightness Sun altitude
Rises 04:58:59 0° 46° (NE) 2,469 10.6 -18.3°
Reaches altitude 10° 05:02:19 10° 82° (E) 1,595 10.2 -17.4°
Maximum altitude 05:03:24 11° 101° (E) 1,521 10.4 -17.2°
Drops below altitude 10° 05:04:29 10° 120° (ESE) 1,596 10.4 -16.9°
Sets 05:07:49 0° 156° (SSE) 2,473 10.7 -16.1°
